Time,TemperatureF,DewpointF,PressureIn,WindDirection,WindDirectionDegrees,WindSpeedMPH,WindSpeedGustMPH,Humidity,HourlyPrecipIn,Conditions,Clouds,dailyrainin,SoftwareType,DateUTC
2013-01-20 00:04:00,39.9,31.9,29.94,West,271,8.4,10.4,73,0.00,RA,,0.00,WeatherDisplay:10.37,2013-01-20 06:04:00,
2013-01-20 00:09:00,39.6,31.7,29.94,WNW,291,8.6,10.4,73,0.00,RA,,0.00,WeatherDisplay:10.37,2013-01-20 06:09:00,
2013-01-20 00:14:00,39.5,31.2,29.95,West,273,10.7,15.0,72,0.00,SCT,,0.00,WeatherDisplay:10.37,2013-01-20 06:14:00,
2013-01-20 00:19:00,39.3,30.7,29.96,NW,309,16.1,18.4,71,0.00,SCT,,0.00,WeatherDisplay:10.37,2013-01-20 06:19:00,
2013-01-20 00:24:00,39.2,30.2,29.96,WNW,288,9.5,15.0,70,0.00,SCT,,0.00,WeatherDisplay:10.37,2013-01-20 06:24:00,
2013-01-20 00:29:00,38.9,29.6,29.97,NW,317,12.5,12.5,69,0.00,SCT,,0.00,WeatherDisplay:10.37,2013-01-20 06:29:00,
2013-01-20 00:34:00,38.6,29.3,29.97,West,275,3.9,5.8,69,0.00,SCT,,0.00,WeatherDisplay:10.37,2013-01-20 06:34:00,
2013-01-20 00:39:00,38.2,28.9,29.98,West,259,16.0,25.3,69,0.00,SCT,,0.00,WeatherDisplay:10.37,2013-01-20 06:39:00,
2013-01-20 00:44:00,37.8,28.2,29.98,NNW,327,22.2,22.2,68,0.00,SCT,,0.00,WeatherDisplay:10.37,2013-01-20 06:44:00,
2013-01-20 00:49:00,37.0,25.9,29.98,West,269,18.3,19.6,64,0.00,SCT,,0.00,WeatherDisplay:10.37,2013-01-20 06:49:00,
2013-01-20 00:54:00,36.5,25.1,29.99,WNW,302,13.8,20.7,63,0.00,CLR,,0.00,WeatherDisplay:10.37,2013-01-20 06:54:00,
2013-01-20 00:59:00,35.9,23.7,29.99,West,269,26.4,29.9,61,0.00,CLR,,0.00,WeatherDisplay:10.37,2013-01-20 06:59:00,
2013-01-20 01:04:00,35.5,23.8,30.00,WNW,300,19.8,33.4,62,0.00,CLR,,0.00,WeatherDisplay:10.37,2013-01-20 07:04:00,
2013-01-20 01:09:00,35.0,24.0,30.01,NW,306,20.9,23.0,64,0.00,CLR,,0.00,WeatherDisplay:10.37,2013-01-20 07:09:00,
2013-01-20 01:14:00,34.6,23.7,30.01,NW,311,17.5,28.5,64,0.00,CLR,,0.00,WeatherDisplay:10.37,2013-01-20 07:14:00,
2013-01-20 01:19:00,33.8,22.1,30.01,West,279,23.9,23.9,62,0.00,CLR,,0.00,WeatherDisplay:10.37,2013-01-20 07:19:00,
2013-01-20 01:24:00,33.1,20.7,30.01,NW,320,24.5,25.3,60,0.00,CLR,,0.00,WeatherDisplay:10.37,2013-01-20 07:24:00,
2013-01-20 01:29:00,32.7,19.5,30.02,North,5,19.6,19.6,58,0.00,CLR,,0.00,WeatherDisplay:10.37,2013-01-20 07:29:00,
2013-01-20 01:34:00,32.4,18.4,30.03,West,271,26.5,40.3,56,0.00,CLR,,0.00,WeatherDisplay:10.37,2013-01-20 07:34:00,
2013-01-20 01:39:00,32.2,19.1,30.04,SSW,206,25.6,33.4,58,0.00,CLR,,0.00,WeatherDisplay:10.37,2013-01-20 07:39:00,
2013-01-20 01:44:00,31.9,20.0,30.05,WSW,244,22.1,22.1,61,0.00,CLR,,0.00,WeatherDisplay:10.37,2013-01-20 07:44:00,
2013-01-20 01:49:00,31.5,19.6,30.05,West,259,19.1,24.2,61,0.00,CLR,,0.00,WeatherDisplay:10.37,2013-01-20 07:49:00,
2013-01-20 01:54:00,31.2,19.3,30.05,WNW,294,17.4,23.0,61,0.00,CLR,,0.00,WeatherDisplay:10.37,2013-01-20 07:54:00,
2013-01-20 01:59:00,30.9,19.4,30.06,WSW,240,6.0,13.5,62,0.00,CLR,,0.00,WeatherDisplay:10.37,2013-01-20 07:59:00,
2013-01-20 02:04:00,30.7,19.6,30.06,WNW,292,7.8,18.4,63,0.00,CLR,,0.00,WeatherDisplay:10.37,2013-01-20 08:04:00,
2013-01-20 02:09:00,30.4,19.3,30.07,WNW,289,10.4,15.0,63,0.00,CLR,,0.00,WeatherDisplay:10.37,2013-01-20 08:09:00,
2013-01-20 02:14:00,30.3,18.8,30.08,West,276,12.3,13.5,62,0.00,CLR,,0.00,WeatherDisplay:10.37,2013-01-20 08:14:00,
2013-01-20 02:19:00,30.0,16.2,30.08,WSW,248,18.8,27.0,56,0.00,CLR,,0.00,WeatherDisplay:10.37,2013-01-20 08:19:00,
2013-01-20 02:24:00,29.5,13.6,30.08,West,273,13.7,19.6,51,0.00,CLR,,0.00,WeatherDisplay:10.37,2013-01-20 08:24:00,
2013-01-20 02:29:00,29.1,12.8,30.08,West,261,19.1,23.0,50,0.00,CLR,,0.00,WeatherDisplay:10.37,2013-01-20 08:29:00,
2013-01-20 02:34:00,28.8,12.5,30.09,West,263,13.9,15.0,50,0.00,CLR,,0.00,WeatherDisplay:10.37,2013-01-20 08:34:00,
2013-01-20 02:39:00,28.5,12.6,30.09,West,275,13.5,24.2,51,0.00,CLR,,0.00,WeatherDisplay:10.37,2013-01-20 08:39:00,
2013-01-20 02:44:00,28.2,13.2,30.10,West,261,12.0,15.0,53,0.00,CLR,,0.00,WeatherDisplay:10.37,2013-01-20 08:44:00,
2013-01-20 02:49:00,27.9,13.0,30.10,WNW,294,15.0,16.1,53,0.00,CLR,,0.00,WeatherDisplay:10.37,2013-01-20 08:49:00,
2013-01-20 02:54:00,27.5,11.7,30.11,WNW,282,22.9,25.3,51,0.00,CLR,,0.00,WeatherDisplay:10.37,2013-01-20 08:54:00,
2013-01-20 02:59:00,27.0,11.3,30.11,WNW,284,14.5,24.2,51,0.00,CLR,,0.00,WeatherDisplay:10.37,2013-01-20 08:59:00,
2013-01-20 03:04:00,26.9,11.6,30.11,West,278,6.7,19.6,52,0.00,CLR,,0.00,WeatherDisplay:10.37,2013-01-20 09:04:00,
2013-01-20 03:09:00,26.6,11.7,30.12,West,273,11.3,18.4,53,0.00,CLR,,0.00,WeatherDisplay:10.37,2013-01-20 09:09:00,
2013-01-20 03:14:00,26.4,11.6,30.11,West,261,7.6,15.0,53,0.00,CLR,,0.00,WeatherDisplay:10.37,2013-01-20 09:14:00,
2013-01-20 03:19:00,26.3,12.3,30.11,WSW,252,9.4,9.4,55,0.00,CLR,,0.00,WeatherDisplay:10.37,2013-01-20 09:19:00,
2013-01-20 03:24:00,26.1,12.1,30.12,WNW,296,7.3,16.1,55,0.00,CLR,,0.00,WeatherDisplay:10.37,2013-01-20 09:24:00,
2013-01-20 03:29:00,26.0,12.4,30.12,West,268,15.2,24.2,56,0.00,CLR,,0.00,WeatherDisplay:10.37,2013-01-20 09:29:00,
2013-01-20 03:34:00,25.7,12.2,30.12,West,265,4.8,7.5,56,0.00,CLR,,0.00,WeatherDisplay:10.37,2013-01-20 09:34:00,
2013-01-20 03:39:00,25.6,12.1,30.13,West,279,7.4,8.1,56,0.00,CLR,,0.00,WeatherDisplay:10.37,2013-01-20 09:39:00,
2013-01-20 03:44:00,25.4,11.9,30.13,SW,218,18.9,18.9,56,0.00,CLR,,0.00,WeatherDisplay:10.37,2013-01-20 09:44:00,
2013-01-20 03:49:00,25.3,11.4,30.14,SW,236,12.8,12.8,55,0.00,CLR,,0.00,WeatherDisplay:10.37,2013-01-20 09:49:00,
2013-01-20 03:54:00,25.1,10.8,30.14,WNW,284,7.0,10.4,54,0.00,CLR,,0.00,WeatherDisplay:10.37,2013-01-20 09:54:00,
2013-01-20 03:59:00,24.8,10.5,30.14,West,263,9.5,9.5,54,0.00,CLR,,0.00,WeatherDisplay:10.37,2013-01-20 09:59:00,
2013-01-20 04:04:00,24.7,10.8,30.14,WNW,297,6.2,6.2,55,0.00,CLR,,0.00,WeatherDisplay:10.37,2013-01-20 10:04:00,
2013-01-20 04:09:00,24.5,11.0,30.15,WNW,284,8.3,13.8,56,0.00,CLR,,0.00,WeatherDisplay:10.37,2013-01-20 10:09:00,
2013-01-20 04:14:00,24.4,10.5,30.14,WNW,299,11.8,18.4,55,0.00,CLR,,0.00,WeatherDisplay:10.37,2013-01-20 10:14:00,
2013-01-20 04:19:00,24.2,9.9,30.15,WNW,292,9.9,15.0,54,0.00,CLR,,0.00,WeatherDisplay:10.37,2013-01-20 10:19:00,
2013-01-20 04:24:00,23.9,9.2,30.15,WSW,245,8.4,15.0,53,0.00,CLR,,0.00,WeatherDisplay:10.37,2013-01-20 10:24:00,
2013-01-20 04:29:00,23.9,9.6,30.15,WSW,256,6.0,8.1,54,0.00,CLR,,0.00,WeatherDisplay:10.37,2013-01-20 10:29:00,
2013-01-20 04:34:00,23.6,9.4,30.15,West,277,9.5,15.0,54,0.00,CLR,,0.00,WeatherDisplay:10.37,2013-01-20 10:34:00,
2013-01-20 04:39:00,23.6,9.8,30.15,WSW,252,13.0,18.4,55,0.00,CLR,,0.00,WeatherDisplay:10.37,2013-01-20 10:39:00,
2013-01-20 04:44:00,23.3,9.1,30.16,WNW,289,13.7,16.1,54,0.00,CLR,,0.00,WeatherDisplay:10.37,2013-01-20 10:44:00,
2013-01-20 04:49:00,23.0,8.8,30.16,WNW,282,15.6,24.2,54,0.00,CLR,,0.00,WeatherDisplay:10.37,2013-01-20 10:49:00,
2013-01-20 04:54:00,22.7,8.9,30.16,WNW,289,17.3,23.0,55,0.00,CLR,,0.00,WeatherDisplay:10.37,2013-01-20 10:54:00,
2013-01-20 04:59:00,22.4,8.7,30.17,West,275,13.1,18.4,55,0.00,CLR,,0.00,WeatherDisplay:10.37,2013-01-20 10:59:00,
2013-01-20 05:04:00,22.2,8.5,30.18,West,278,14.1,15.0,55,0.00,CLR,,0.00,WeatherDisplay:10.37,2013-01-20 11:04:00,
2013-01-20 05:09:00,22.1,8.0,30.18,West,275,17.6,17.6,54,0.00,CLR,,0.00,WeatherDisplay:10.37,2013-01-20 11:09:00,
2013-01-20 05:14:00,21.9,8.2,30.18,WSW,252,13.2,16.1,55,0.00,CLR,,0.00,WeatherDisplay:10.37,2013-01-20 11:14:00,
2013-01-20 05:19:00,21.9,8.6,30.19,WNW,291,9.9,19.6,56,0.00,CLR,,0.00,WeatherDisplay:10.37,2013-01-20 11:19:00,
2013-01-20 05:24:00,21.8,8.9,30.19,West,272,6.9,9.2,57,0.00,CLR,,0.00,WeatherDisplay:10.37,2013-01-20 11:24:00,
2013-01-20 05:29:00,21.8,9.3,30.20,West,271,11.6,11.6,58,0.00,CLR,,0.00,WeatherDisplay:10.37,2013-01-20 11:29:00,
2013-01-20 05:34:00,21.6,9.1,30.20,West,277,6.7,10.4,58,0.00,CLR,,0.00,WeatherDisplay:10.37,2013-01-20 11:34:00,
2013-01-20 05:39:00,21.4,8.9,30.20,WNW,291,18.9,18.9,58,0.00,CLR,,0.00,WeatherDisplay:10.37,2013-01-20 11:39:00,
2013-01-20 05:44:00,21.3,8.8,30.20,WNW,290,18.3,24.2,58,0.00,CLR,,0.00,WeatherDisplay:10.37,2013-01-20 11:44:00,
2013-01-20 05:49:00,21.0,8.1,30.21,WSW,251,11.2,11.2,57,0.00,CLR,,0.00,WeatherDisplay:10.37,2013-01-20 11:49:00,
2013-01-20 05:54:00,20.8,7.9,30.20,WNW,294,11.9,11.9,57,0.00,CLR,,0.00,WeatherDisplay:10.37,2013-01-20 11:54:00,
2013-01-20 05:59:00,20.6,7.8,30.21,NW,309,10.8,10.8,57,0.00,CLR,,0.00,WeatherDisplay:10.37,2013-01-20 11:59:00,
2013-01-20 06:05:00,20.5,8.0,30.21,WSW,240,9.0,9.0,58,0.00,CLR,,0.00,WeatherDisplay:10.37,2013-01-20 12:05:00,
2013-01-20 06:10:00,20.5,8.0,30.22,WNW,285,13.2,15.0,58,0.00,CLR,,0.00,WeatherDisplay:10.37,2013-01-20 12:10:00,
2013-01-20 06:15:00,20.3,7.9,30.22,WNW,290,14.7,16.1,58,0.00,CLR,,0.00,WeatherDisplay:10.37,2013-01-20 12:15:00,
2013-01-20 06:20:00,20.2,8.1,30.22,NNW,338,8.7,10.4,59,0.00,CLR,,0.00,WeatherDisplay:10.37,2013-01-20 12:20:00,
2013-01-20 06:25:00,20.0,8.0,30.22,WNW,294,12.8,19.6,59,0.00,CLR,,0.00,WeatherDisplay:10.37,2013-01-20 12:25:00,
2013-01-20 06:30:00,19.9,8.2,30.22,WNW,286,5.9,5.9,60,0.00,CLR,,0.00,WeatherDisplay:10.37,2013-01-20 12:30:00,
2013-01-20 06:35:00,19.9,8.6,30.21,WNW,292,9.1,10.4,61,0.00,CLR,,0.00,WeatherDisplay:10.37,2013-01-20 12:35:00,
2013-01-20 06:40:00,19.7,8.4,30.22,WNW,298,10.0,15.0,61,0.00,CLR,,0.00,WeatherDisplay:10.37,2013-01-20 12:40:00,
2013-01-20 06:45:00,19.5,8.6,30.22,NNW,343,9.2,13.8,62,0.00,CLR,,0.00,WeatherDisplay:10.37,2013-01-20 12:45:00,
2013-01-20 06:50:00,19.4,8.8,30.22,WNW,295,9.0,11.0,63,0.00,CLR,,0.00,WeatherDisplay:10.37,2013-01-20 12:50:00,
2013-01-20 06:55:00,19.2,9.0,30.23,WNW,292,10.5,11.5,64,0.00,CLR,,0.00,WeatherDisplay:10.37,2013-01-20 12:55:00,
2013-01-20 07:00:00,19.2,9.0,30.23,WNW,294,10.0,14.0,64,0.00,CLR,,0.00,WeatherDisplay:10.37,2013-01-20 13:00:00,
2013-01-20 07:05:00,19.1,9.3,30.23,WNW,291,12.0,15.0,65,0.00,CLR,,0.00,WeatherDisplay:10.37,2013-01-20 13:05:00,
2013-01-20 07:10:00,18.9,9.1,30.23,NW,309,13.4,13.8,65,0.00,CLR,,0.00,WeatherDisplay:10.37,2013-01-20 13:10:00,
2013-01-20 07:15:00,18.8,9.0,30.23,NW,324,6.8,10.4,65,0.00,CLR,,0.00,WeatherDisplay:10.37,2013-01-20 13:15:00,
2013-01-20 07:20:00,18.6,8.8,30.23,WNW,303,8.0,9.0,65,0.00,CLR,,0.00,WeatherDisplay:10.37,2013-01-20 13:20:00,
2013-01-20 07:25:00,18.4,8.2,30.24,NW,308,10.9,10.9,64,0.00,CLR,,0.00,WeatherDisplay:10.37,2013-01-20 13:25:00,
2013-01-20 07:30:00,18.4,8.2,30.24,WNW,296,12.0,17.0,64,0.00,CLR,,0.00,WeatherDisplay:10.37,2013-01-20 13:30:00,
2013-01-20 07:35:00,18.3,7.4,30.25,WNW,290,10.0,12.0,62,0.00,CLR,,0.00,WeatherDisplay:10.37,2013-01-20 13:35:00,
2013-01-20 07:40:00,18.3,7.4,30.25,WNW,290,7.9,13.8,62,0.00,CLR,,0.00,WeatherDisplay:10.37,2013-01-20 13:40:00,
2013-01-20 07:45:00,18.3,7.4,30.25,WNW,289,12.0,21.0,62,0.00,CLR,,0.00,WeatherDisplay:10.37,2013-01-20 13:45:00,
2013-01-20 07:50:00,18.4,7.5,30.25,WNW,297,9.0,17.0,62,0.00,CLR,,0.00,WeatherDisplay:10.37,2013-01-20 13:50:00,
2013-01-20 07:55:00,18.4,7.5,30.26,West,274,10.9,10.9,62,0.00,CLR,,0.00,WeatherDisplay:10.37,2013-01-20 13:55:00,
2013-01-20 08:00:00,18.4,7.9,30.26,West,270,9.3,9.3,63,0.00,CLR,,0.00,WeatherDisplay:10.37,2013-01-20 14:00:00,
2013-01-20 08:05:00,18.6,7.7,30.26,WSW,250,10.6,16.1,62,0.00,CLR,,0.00,WeatherDisplay:10.37,2013-01-20 14:05:00,
2013-01-20 08:10:00,18.6,7.7,30.27,WNW,282,11.8,15.0,62,0.00,CLR,,0.00,WeatherDisplay:10.37,2013-01-20 14:10:00,
2013-01-20 08:15:00,18.6,7.4,30.27,WNW,294,11.6,15.0,61,0.00,CLR,,0.00,WeatherDisplay:10.37,2013-01-20 14:15:00,
2013-01-20 08:20:00,18.6,7.0,30.28,WNW,290,10.2,16.1,60,0.00,CLR,,0.00,WeatherDisplay:10.37,2013-01-20 14:20:00,
2013-01-20 08:25:00,18.6,7.0,30.28,NNW,329,14.2,15.0,60,0.00,CLR,,0.00,WeatherDisplay:10.37,2013-01-20 14:25:00,
2013-01-20 08:30:00,18.8,7.2,30.28,WNW,286,8.4,10.4,60,0.00,CLR,,0.00,WeatherDisplay:10.37,2013-01-20 14:30:00,
2013-01-20 08:35:00,18.9,7.7,30.28,WNW,302,8.7,10.5,61,0.00,CLR,,0.00,WeatherDisplay:10.37,2013-01-20 14:35:00,
2013-01-20 08:40:00,18.9,7.3,30.28,West,277,9.1,9.2,60,0.00,CLR,,0.00,WeatherDisplay:10.37,2013-01-20 14:40:00,
2013-01-20 08:45:00,18.9,7.7,30.28,NW,313,6.0,9.2,61,0.00,CLR,,0.00,WeatherDisplay:10.37,2013-01-20 14:45:00,
2013-01-20 08:50:00,18.8,7.2,30.28,West,267,7.0,9.2,60,0.00,CLR,,0.00,WeatherDisplay:10.37,2013-01-20 14:50:00,
2013-01-20 08:55:00,18.6,7.0,30.28,WNW,295,6.9,10.4,60,0.00,CLR,,0.00,WeatherDisplay:10.37,2013-01-20 14:55:00,
2013-01-20 09:00:00,18.9,7.7,30.28,WNW,294,7.4,9.2,61,0.00,CLR,,0.00,WeatherDisplay:10.37,2013-01-20 15:00:00,
2013-01-20 09:05:00,19.1,7.8,30.28,West,277,7.4,9.2,61,0.00,CLR,,0.00,WeatherDisplay:10.37,2013-01-20 15:05:00,
2013-01-20 09:10:00,18.9,7.7,30.28,NW,308,7.9,8.1,61,0.00,CLR,,0.00,WeatherDisplay:10.37,2013-01-20 15:10:00,
2013-01-20 09:15:00,18.9,7.7,30.28,WNW,296,7.0,8.1,61,0.00,CLR,,0.00,WeatherDisplay:10.37,2013-01-20 15:15:00,
2013-01-20 09:20:00,18.9,7.7,30.28,WSW,257,4.5,5.8,61,0.00,CLR,,0.00,WeatherDisplay:10.37,2013-01-20 15:20:00,
2013-01-20 09:25:00,19.2,7.9,30.28,North,9,7.8,10.4,61,0.00,CLR,,0.00,WeatherDisplay:10.37,2013-01-20 15:25:00,
2013-01-20 09:30:00,19.4,7.8,30.27,West,278,6.7,8.1,60,0.00,CLR,,0.00,WeatherDisplay:10.37,2013-01-20 15:30:00,
2013-01-20 09:35:00,19.7,8.0,30.28,West,277,6.8,9.2,60,0.00,CLR,,0.00,WeatherDisplay:10.37,2013-01-20 15:35:00,
2013-01-20 09:40:00,19.9,8.2,30.28,WNW,292,3.3,8.1,60,0.00,CLR,,0.00,WeatherDisplay:10.37,2013-01-20 15:40:00,
2013-01-20 09:45:00,20.0,8.3,30.29,WNW,294,12.6,15.0,60,0.00,CLR,,0.00,WeatherDisplay:10.37,2013-01-20 15:45:00,
2013-01-20 09:50:00,19.5,7.5,30.29,NW,321,6.6,8.1,59,0.00,CLR,,0.00,WeatherDisplay:10.37,2013-01-20 15:50:00,
2013-01-20 09:55:00,19.4,7.8,30.30,NNW,340,4.2,8.1,60,0.00,CLR,,0.00,WeatherDisplay:10.37,2013-01-20 15:55:00,
2013-01-20 10:00:00,19.7,8.4,30.30,NW,307,4.9,10.5,61,0.00,CLR,,0.00,WeatherDisplay:10.37,2013-01-20 16:00:00,
2013-01-20 10:05:00,19.9,8.6,30.30,NNW,329,7.0,9.2,61,0.00,CLR,,0.00,WeatherDisplay:10.37,2013-01-20 16:05:00,
2013-01-20 10:10:00,19.9,8.6,30.30,NW,325,9.0,9.2,61,0.00,CLR,,0.00,WeatherDisplay:10.37,2013-01-20 16:10:00,
2013-01-20 10:15:00,20.3,7.9,30.30,NNW,337,16.7,16.7,58,0.00,CLR,,0.00,WeatherDisplay:10.37,2013-01-20 16:15:00,
2013-01-20 10:20:00,20.5,8.0,30.30,WNW,297,1.6,4.6,58,0.00,CLR,,0.00,WeatherDisplay:10.37,2013-01-20 16:20:00,
2013-01-20 10:25:00,20.6,7.8,30.30,NW,313,5.5,6.0,57,0.00,CLR,,0.00,WeatherDisplay:10.37,2013-01-20 16:25:00,
2013-01-20 10:30:00,20.8,7.9,30.30,NW,317,1.4,5.8,57,0.00,CLR,,0.00,WeatherDisplay:10.37,2013-01-20 16:30:00,
2013-01-20 10:35:00,21.0,7.7,30.29,NW,306,2.7,9.0,56,0.00,CLR,,0.00,WeatherDisplay:10.37,2013-01-20 16:35:00,
2013-01-20 10:40:00,21.0,7.7,30.29,North,360,11.8,11.8,56,0.00,CLR,,0.00,WeatherDisplay:10.37,2013-01-20 16:40:00,
2013-01-20 10:45:00,21.0,7.3,30.29,WNW,300,8.3,9.2,55,0.00,CLR,,0.00,WeatherDisplay:10.37,2013-01-20 16:45:00,
2013-01-20 10:50:00,21.0,7.7,30.29,WNW,302,13.2,16.1,56,0.00,CLR,,0.00,WeatherDisplay:10.37,2013-01-20 16:50:00,
2013-01-20 10:55:00,21.3,8.0,30.30,NNW,336,1.2,5.8,56,0.00,CLR,,0.00,WeatherDisplay:10.37,2013-01-20 16:55:00,
2013-01-20 11:00:00,21.8,8.5,30.29,WNW,283,8.5,9.2,56,0.00,CLR,,0.00,WeatherDisplay:10.37,2013-01-20 17:00:00,
2013-01-20 11:05:00,21.8,8.1,30.28,NW,320,6.1,8.1,55,0.00,CLR,,0.00,WeatherDisplay:10.37,2013-01-20 17:05:00,
2013-01-20 11:10:00,21.8,8.1,30.28,WNW,290,7.1,9.2,55,0.00,CLR,,0.00,WeatherDisplay:10.37,2013-01-20 17:10:00,
2013-01-20 11:15:00,21.9,8.2,30.28,NW,313,2.7,10.4,55,0.00,CLR,,0.00,WeatherDisplay:10.37,2013-01-20 17:15:00,
2013-01-20 11:20:00,22.2,8.5,30.27,NW,314,7.2,13.5,55,0.00,CLR,,0.00,WeatherDisplay:10.37,2013-01-20 17:20:00,
2013-01-20 11:25:00,22.2,8.9,30.27,NW,311,6.5,8.1,56,0.00,CLR,,0.00,WeatherDisplay:10.37,2013-01-20 17:25:00,
2013-01-20 11:30:00,22.5,9.1,30.27,NNW,337,2.6,3.5,56,0.00,CLR,,0.00,WeatherDisplay:10.37,2013-01-20 17:30:00,
2013-01-20 11:35:00,22.7,8.5,30.26,West,263,4.4,7.5,54,0.00,CLR,,0.00,WeatherDisplay:10.37,2013-01-20 17:35:00,
2013-01-20 11:40:00,22.5,8.7,30.26,SW,227,0.2,1.1,55,0.00,CLR,,0.00,WeatherDisplay:10.37,2013-01-20 17:40:00,
2013-01-20 11:45:00,22.9,9.5,30.25,West,269,7.0,8.1,56,0.00,CLR,,0.00,WeatherDisplay:10.37,2013-01-20 17:45:00,
2013-01-20 11:50:00,23.2,9.8,30.25,SSW,192,1.9,3.5,56,0.00,CLR,,0.00,WeatherDisplay:10.37,2013-01-20 17:50:00,
2013-01-20 11:55:00,23.2,9.8,30.25,WNW,297,2.5,4.6,56,0.00,CLR,,0.00,WeatherDisplay:10.37,2013-01-20 17:55:00,
2013-01-20 12:00:00,22.9,8.7,30.25,NNW,342,3.6,8.1,54,0.00,CLR,,0.00,WeatherDisplay:10.37,2013-01-20 18:00:00,
2013-01-20 12:05:00,22.9,9.5,30.24,West,272,1.9,5.8,56,0.00,CLR,,0.00,WeatherDisplay:10.37,2013-01-20 18:05:00,
2013-01-20 12:10:00,22.9,9.5,30.25,SW,234,10.8,10.8,56,0.00,CLR,,0.00,WeatherDisplay:10.37,2013-01-20 18:10:00,
2013-01-20 12:15:00,23.0,9.6,30.25,WNW,288,3.3,10.4,56,0.00,CLR,,0.00,WeatherDisplay:10.37,2013-01-20 18:15:00,
2013-01-20 12:20:00,23.0,9.2,30.25,West,263,4.9,9.2,55,0.00,CLR,,0.00,WeatherDisplay:10.37,2013-01-20 18:20:00,
2013-01-20 12:25:00,23.3,9.9,30.24,West,259,6.6,9.2,56,0.00,CLR,,0.00,WeatherDisplay:10.37,2013-01-20 18:25:00,
2013-01-20 12:30:00,23.5,10.1,30.24,NW,311,3.6,4.6,56,0.00,CLR,,0.00,WeatherDisplay:10.37,2013-01-20 18:30:00,
2013-01-20 12:35:00,23.5,10.1,30.24,WNW,291,4.5,8.1,56,0.00,CLR,,0.00,WeatherDisplay:10.37,2013-01-20 18:35:00,
2013-01-20 12:40:00,23.3,9.1,30.24,WSW,252,4.7,10.4,54,0.00,CLR,,0.00,WeatherDisplay:10.37,2013-01-20 18:40:00,
2013-01-20 12:45:00,23.2,9.0,30.24,West,266,8.5,10.4,54,0.00,CLR,,0.00,WeatherDisplay:10.37,2013-01-20 18:45:00,
2013-01-20 12:50:00,23.5,9.7,30.24,West,281,6.9,9.2,55,0.00,CLR,,0.00,WeatherDisplay:10.37,2013-01-20 18:50:00,
2013-01-20 12:55:00,23.6,9.8,30.24,West,263,11.0,11.0,55,0.00,CLR,,0.00,WeatherDisplay:10.37,2013-01-20 18:55:00,
2013-01-20 13:00:00,23.8,10.0,30.25,WNW,292,13.8,13.8,55,0.00,CLR,,0.00,WeatherDisplay:10.37,2013-01-20 19:00:00,
2013-01-20 13:05:00,23.8,10.4,30.25,SW,223,7.4,8.1,56,0.00,CLR,,0.00,WeatherDisplay:10.37,2013-01-20 19:05:00,
2013-01-20 13:10:00,24.2,10.3,30.24,WNW,298,9.4,9.4,55,0.00,CLR,,0.00,WeatherDisplay:10.37,2013-01-20 19:10:00,
2013-01-20 13:16:00,24.2,9.9,30.24,SW,233,4.2,8.1,54,0.00,CLR,,0.00,WeatherDisplay:10.37,2013-01-20 19:16:00,
2013-01-20 13:21:00,24.2,9.5,30.24,WNW,288,9.2,10.4,53,0.00,CLR,,0.00,WeatherDisplay:10.37,2013-01-20 19:21:00,
2013-01-20 13:26:00,24.1,9.8,30.24,NW,311,3.3,5.8,54,0.00,CLR,,0.00,WeatherDisplay:10.37,2013-01-20 19:26:00,
2013-01-20 13:31:00,24.1,9.4,30.24,West,280,6.8,6.8,53,0.00,SCT,,0.00,WeatherDisplay:10.37,2013-01-20 19:31:00,
2013-01-20 13:36:00,24.2,9.5,30.24,WNW,283,6.9,10.4,53,0.00,SCT,,0.00,WeatherDisplay:10.37,2013-01-20 19:36:00,
2013-01-20 13:41:00,24.2,9.5,30.24,WNW,303,8.7,15.0,53,0.00,SCT,,0.00,WeatherDisplay:10.37,2013-01-20 19:41:00,
2013-01-20 13:46:00,24.2,9.5,30.24,WSW,256,5.6,8.1,53,0.00,SCT,,0.00,WeatherDisplay:10.37,2013-01-20 19:46:00,
2013-01-20 13:51:00,24.4,9.7,30.24,West,265,5.4,8.1,53,0.00,SCT,,0.00,WeatherDisplay:10.37,2013-01-20 19:51:00,
2013-01-20 13:56:00,24.2,9.5,30.24,NW,304,5.6,8.1,53,0.00,SCT,,0.00,WeatherDisplay:10.37,2013-01-20 19:56:00,
2013-01-20 14:01:00,24.1,9.8,30.25,NW,308,14.4,15.0,54,0.00,SCT,,0.00,WeatherDisplay:10.37,2013-01-20 20:01:00,
2013-01-20 14:06:00,23.9,9.6,30.26,NW,320,9.8,15.0,54,0.00,SCT,,0.00,WeatherDisplay:10.37,2013-01-20 20:06:00,
2013-01-20 14:11:00,23.9,9.6,30.25,NW,306,16.9,16.9,54,0.00,BKN,,0.00,WeatherDisplay:10.37,2013-01-20 20:11:00,
2013-01-20 14:16:00,23.8,10.0,30.26,WNW,287,9.3,9.3,55,0.00,BKN,,0.00,WeatherDisplay:10.37,2013-01-20 20:16:00,
2013-01-20 14:21:00,23.8,10.0,30.26,WNW,298,6.2,8.1,55,0.00,BKN,,0.00,WeatherDisplay:10.37,2013-01-20 20:21:00,
2013-01-20 14:26:00,23.8,10.0,30.25,NW,308,4.8,6.0,55,0.00,BKN,,0.00,WeatherDisplay:10.37,2013-01-20 20:26:00,
2013-01-20 14:31:00,23.9,9.6,30.26,West,279,4.1,5.8,54,0.00,BKN,,0.00,WeatherDisplay:10.37,2013-01-20 20:31:00,
2013-01-20 14:36:00,23.6,8.9,30.26,NW,307,11.6,16.1,53,0.00,BKN,,0.00,WeatherDisplay:10.37,2013-01-20 20:36:00,
2013-01-20 14:41:00,23.6,9.8,30.26,WNW,289,7.9,8.1,55,0.00,BKN,,0.00,WeatherDisplay:10.37,2013-01-20 20:41:00,
2013-01-20 14:46:00,23.6,8.9,30.26,West,280,13.8,15.0,53,0.00,BKN,,0.00,WeatherDisplay:10.37,2013-01-20 20:46:00,
2013-01-20 14:51:00,23.6,9.4,30.25,WNW,288,3.9,4.6,54,0.00,OVC,,0.00,WeatherDisplay:10.37,2013-01-20 20:51:00,
2013-01-20 14:56:00,23.6,9.4,30.25,NW,306,4.2,4.6,54,0.00,OVC,,0.00,WeatherDisplay:10.37,2013-01-20 20:56:00,
2013-01-20 15:01:00,23.8,9.6,30.26,West,277,3.5,5.8,54,0.00,OVC,,0.00,WeatherDisplay:10.37,2013-01-20 21:01:00,
2013-01-20 15:06:00,23.9,10.1,30.25,West,277,7.2,7.2,55,0.00,OVC,,0.00,WeatherDisplay:10.37,2013-01-20 21:06:00,
2013-01-20 15:12:00,23.9,9.2,30.25,West,281,5.0,5.8,53,0.00,BKN,,0.00,WeatherDisplay:10.37,2013-01-20 21:12:00,
2013-01-20 15:17:00,23.9,9.6,30.25,West,266,3.4,8.1,54,0.00,BKN,,0.00,WeatherDisplay:10.37,2013-01-20 21:17:00,
2013-01-20 15:22:00,23.8,10.0,30.25,West,261,3.4,3.5,55,0.00,BKN,,0.00,WeatherDisplay:10.37,2013-01-20 21:22:00,
2013-01-20 15:27:00,23.9,10.1,30.25,WSW,256,8.8,10.4,55,0.00,BKN,,0.00,WeatherDisplay:10.37,2013-01-20 21:27:00,
2013-01-20 15:32:00,23.9,9.6,30.25,West,281,5.7,5.8,54,0.00,CLR,,0.00,WeatherDisplay:10.37,2013-01-20 21:32:00,
2013-01-20 15:37:00,24.1,9.8,30.25,West,267,7.3,10.4,54,0.00,CLR,,0.00,WeatherDisplay:10.37,2013-01-20 21:37:00,
2013-01-20 15:42:00,23.9,9.6,30.25,WNW,287,6.1,8.1,54,0.00,CLR,,0.00,WeatherDisplay:10.37,2013-01-20 21:42:00,
2013-01-20 15:47:00,23.8,9.6,30.25,WNW,296,4.4,4.6,54,0.00,CLR,,0.00,WeatherDisplay:10.37,2013-01-20 21:47:00,
2013-01-20 15:53:00,23.9,9.6,30.25,WNW,282,6.0,8.1,54,0.00,BKN,,0.00,WeatherDisplay:10.37,2013-01-20 21:53:00,
2013-01-20 15:58:00,23.8,9.1,30.26,West,277,7.5,7.5,53,0.00,BKN,,0.00,WeatherDisplay:10.37,2013-01-20 21:58:00,
2013-01-20 16:03:00,23.8,9.6,30.26,WSW,249,2.5,7.5,54,0.00,BKN,,0.00,WeatherDisplay:10.37,2013-01-20 22:03:00,
2013-01-20 16:08:00,23.8,10.0,30.26,West,273,5.8,6.0,55,0.00,BKN,,0.00,WeatherDisplay:10.37,2013-01-20 22:08:00,
2013-01-20 16:13:00,23.8,9.6,30.26,WNW,294,5.8,5.8,54,0.00,BKN,,0.00,WeatherDisplay:10.37,2013-01-20 22:13:00,
2013-01-20 16:18:00,23.8,10.0,30.26,NW,311,7.1,7.1,55,0.00,BKN,,0.00,WeatherDisplay:10.37,2013-01-20 22:18:00,
2013-01-20 16:23:00,23.9,10.1,30.26,NW,322,6.5,6.5,55,0.00,BKN,,0.00,WeatherDisplay:10.37,2013-01-20 22:23:00,
2013-01-20 16:28:00,23.8,9.6,30.26,West,279,7.1,8.1,54,0.00,BKN,,0.00,WeatherDisplay:10.37,2013-01-20 22:28:00,
2013-01-20 16:33:00,23.8,10.0,30.26,West,271,8.7,10.4,55,0.00,SCT,,0.00,WeatherDisplay:10.37,2013-01-20 22:33:00,
2013-01-20 16:38:00,23.6,9.4,30.26,NW,306,5.1,5.8,54,0.00,SCT,,0.00,WeatherDisplay:10.37,2013-01-20 22:38:00,
2013-01-20 16:43:00,23.6,9.4,30.26,West,259,6.5,6.5,54,0.00,SCT,,0.00,WeatherDisplay:10.37,2013-01-20 22:43:00,
2013-01-20 16:48:00,23.5,9.3,30.27,West,276,3.6,9.2,54,0.00,SCT,,0.00,WeatherDisplay:10.37,2013-01-20 22:48:00,
2013-01-20 16:53:00,23.3,9.5,30.27,WNW,292,2.4,4.5,55,0.00,CLR,,0.00,WeatherDisplay:10.37,2013-01-20 22:53:00,
2013-01-20 16:58:00,23.3,9.9,30.27,WNW,282,9.8,10.4,56,0.00,CLR,,0.00,WeatherDisplay:10.37,2013-01-20 22:58:00,
2013-01-20 17:03:00,23.3,10.3,30.27,West,263,7.2,10.4,57,0.00,CLR,,0.00,WeatherDisplay:10.37,2013-01-20 23:03:00,
2013-01-20 17:08:00,23.2,10.2,30.27,West,277,7.1,8.1,57,0.00,CLR,,0.00,WeatherDisplay:10.37,2013-01-20 23:08:00,
2013-01-20 17:13:00,23.2,10.2,30.26,WNW,298,4.1,5.8,57,0.00,BKN,,0.00,WeatherDisplay:10.37,2013-01-20 23:13:00,
2013-01-20 17:18:00,23.0,9.6,30.26,West,274,6.1,6.1,56,0.00,BKN,,0.00,WeatherDisplay:10.37,2013-01-20 23:18:00,
2013-01-20 17:23:00,23.0,9.2,30.26,WNW,297,6.0,6.0,55,0.00,BKN,,0.00,WeatherDisplay:10.37,2013-01-20 23:23:00,
2013-01-20 17:28:00,22.9,8.7,30.26,West,281,4.2,4.6,54,0.00,BKN,,0.00,WeatherDisplay:10.37,2013-01-20 23:28:00,
2013-01-20 17:33:00,22.7,8.9,30.26,West,281,6.2,6.2,55,0.00,OVC,,0.00,WeatherDisplay:10.37,2013-01-20 23:33:00,
2013-01-20 17:38:00,22.7,8.9,30.26,WNW,286,5.4,5.8,55,0.00,OVC,,0.00,WeatherDisplay:10.37,2013-01-20 23:38:00,
2013-01-20 17:43:00,22.7,8.9,30.26,West,272,2.9,5.8,55,0.00,OVC,,0.00,WeatherDisplay:10.37,2013-01-20 23:43:00,
2013-01-20 17:48:00,22.7,8.5,30.26,West,263,5.6,9.2,54,0.00,OVC,,0.00,WeatherDisplay:10.37,2013-01-20 23:48:00,
2013-01-20 17:53:00,22.7,8.9,30.26,WNW,290,5.0,8.1,55,0.00,BKN,,0.00,WeatherDisplay:10.37,2013-01-20 23:53:00,
2013-01-20 17:58:00,22.5,8.3,30.26,WNW,300,5.6,5.8,54,0.00,BKN,,0.00,WeatherDisplay:10.37,2013-01-20 23:58:00,
2013-01-20 18:03:00,22.5,8.3,30.27,West,279,5.7,8.1,54,0.00,BKN,,0.00,WeatherDisplay:10.37,2013-01-21 00:03:00,
2013-01-20 18:08:00,22.4,8.2,30.27,WNW,302,6.6,8.1,54,0.00,BKN,,0.00,WeatherDisplay:10.37,2013-01-21 00:08:00,
2013-01-20 18:13:00,22.4,8.2,30.26,NW,310,4.5,4.6,54,0.00,OVC,,0.00,WeatherDisplay:10.37,2013-01-21 00:13:00,
2013-01-20 18:18:00,22.4,8.7,30.27,WNW,300,5.5,5.8,55,0.00,OVC,,0.00,WeatherDisplay:10.37,2013-01-21 00:18:00,
2013-01-20 18:23:00,22.4,8.7,30.27,WNW,286,4.0,8.1,55,0.00,OVC,,0.00,WeatherDisplay:10.37,2013-01-21 00:23:00,
2013-01-20 18:28:00,22.4,8.7,30.27,WNW,283,4.6,4.6,55,0.00,OVC,,0.00,WeatherDisplay:10.37,2013-01-21 00:28:00,
2013-01-20 18:33:00,22.2,8.5,30.27,WNW,301,8.0,9.2,55,0.00,OVC,,0.00,WeatherDisplay:10.37,2013-01-21 00:33:00,
2013-01-20 18:38:00,22.2,8.9,30.27,WNW,297,4.0,5.8,56,0.00,OVC,,0.00,WeatherDisplay:10.37,2013-01-21 00:38:00,
2013-01-20 18:43:00,22.2,8.5,30.27,WSW,246,5.1,6.0,55,0.00,OVC,,0.00,WeatherDisplay:10.37,2013-01-21 00:43:00,
2013-01-20 18:48:00,22.1,8.8,30.27,NNW,327,8.1,9.2,56,0.00,OVC,,0.00,WeatherDisplay:10.37,2013-01-21 00:48:00,
2013-01-20 18:53:00,22.1,8.8,30.27,WNW,299,4.5,4.5,56,0.00,OVC,,0.00,WeatherDisplay:10.37,2013-01-21 00:53:00,
2013-01-20 18:58:00,22.2,9.3,30.27,WNW,286,5.7,5.8,57,0.00,OVC,,0.00,WeatherDisplay:10.37,2013-01-21 00:58:00,
2013-01-20 19:03:00,22.1,8.8,30.26,WNW,299,7.1,9.2,56,0.00,OVC,,0.00,WeatherDisplay:10.37,2013-01-21 01:03:00,
2013-01-20 19:08:00,21.9,8.6,30.26,West,277,6.6,6.6,56,0.00,OVC,,0.00,WeatherDisplay:10.37,2013-01-21 01:08:00,
2013-01-20 19:13:00,21.8,8.5,30.26,WNW,288,4.6,8.1,56,0.00,OVC,,0.00,WeatherDisplay:10.37,2013-01-21 01:13:00,
2013-01-20 19:18:00,21.6,8.3,30.26,West,269,6.2,6.2,56,0.00,OVC,,0.00,WeatherDisplay:10.37,2013-01-21 01:18:00,
2013-01-20 19:23:00,21.6,7.9,30.26,WNW,288,7.2,8.1,55,0.00,OVC,,0.00,WeatherDisplay:10.37,2013-01-21 01:23:00,
2013-01-20 19:28:00,21.4,8.1,30.26,NNW,327,7.9,7.9,56,0.00,OVC,,0.00,WeatherDisplay:10.37,2013-01-21 01:28:00,
2013-01-20 19:33:00,21.3,8.4,30.26,West,277,6.3,8.1,57,0.00,OVC,,0.00,WeatherDisplay:10.37,2013-01-21 01:33:00,
2013-01-20 19:38:00,21.3,8.8,30.26,WNW,291,6.0,6.0,58,0.00,OVC,,0.00,WeatherDisplay:10.37,2013-01-21 01:38:00,
2013-01-20 19:44:00,21.1,8.6,30.26,WNW,300,5.2,6.0,58,0.00,OVC,,0.00,WeatherDisplay:10.37,2013-01-21 01:44:00,
2013-01-20 19:49:00,21.1,9.0,30.26,WNW,300,1.3,3.5,59,0.00,OVC,,0.00,WeatherDisplay:10.37,2013-01-21 01:49:00,
2013-01-20 19:54:00,21.1,8.6,30.26,West,277,9.2,9.2,58,0.00,OVC,,0.00,WeatherDisplay:10.37,2013-01-21 01:54:00,
2013-01-20 19:59:00,21.1,8.6,30.26,WNW,291,1.6,1.6,58,0.00,OVC,,0.00,WeatherDisplay:10.37,2013-01-21 01:59:00,
2013-01-20 20:04:00,21.1,9.0,30.26,West,270,4.1,6.0,59,0.00,OVC,,0.00,WeatherDisplay:10.37,2013-01-21 02:04:00,
2013-01-20 20:09:00,21.1,8.6,30.26,NW,316,5.2,7.5,58,0.00,OVC,,0.00,WeatherDisplay:10.37,2013-01-21 02:09:00,
2013-01-20 20:14:00,21.1,9.0,30.26,WSW,247,7.5,8.1,59,0.00,OVC,,0.00,WeatherDisplay:10.37,2013-01-21 02:14:00,
2013-01-20 20:19:00,21.1,9.0,30.25,WNW,291,5.7,8.1,59,0.00,OVC,,0.00,WeatherDisplay:10.37,2013-01-21 02:19:00,
2013-01-20 20:24:00,21.0,8.5,30.25,NW,322,4.7,9.2,58,0.00,OVC,,0.00,WeatherDisplay:10.37,2013-01-21 02:24:00,
2013-01-20 20:29:00,21.0,8.5,30.25,West,277,6.5,6.5,58,0.00,OVC,,0.00,WeatherDisplay:10.37,2013-01-21 02:29:00,
2013-01-20 20:34:00,21.0,8.5,30.25,West,279,7.4,9.2,58,0.00,OVC,,0.00,WeatherDisplay:10.37,2013-01-21 02:34:00,
2013-01-20 20:39:00,21.0,8.5,30.25,West,270,6.4,7.5,58,0.00,OVC,,0.00,WeatherDisplay:10.37,2013-01-21 02:39:00,
2013-01-20 20:44:00,20.8,8.3,30.25,WNW,283,1.1,3.0,58,0.00,OVC,,0.00,WeatherDisplay:10.37,2013-01-21 02:44:00,
2013-01-20 20:49:00,20.8,8.3,30.25,NW,308,6.9,8.1,58,0.00,OVC,,0.00,WeatherDisplay:10.37,2013-01-21 02:49:00,
2013-01-20 20:54:00,20.8,8.7,30.25,WNW,300,3.2,4.6,59,0.00,OVC,,0.00,WeatherDisplay:10.37,2013-01-21 02:54:00,
2013-01-20 20:59:00,20.8,9.1,30.24,WNW,291,2.7,4.6,60,0.00,OVC,,0.00,WeatherDisplay:10.37,2013-01-21 02:59:00,
2013-01-20 21:04:00,20.6,8.9,30.24,WNW,301,7.4,8.1,60,0.00,OVC,,0.00,WeatherDisplay:10.37,2013-01-21 03:04:00,
2013-01-20 21:09:00,20.6,9.3,30.24,West,279,5.5,5.8,61,0.00,OVC,,0.00,WeatherDisplay:10.37,2013-01-21 03:09:00,
2013-01-20 21:14:00,20.6,9.3,30.25,WNW,288,5.5,5.8,61,0.00,OVC,,0.00,WeatherDisplay:10.37,2013-01-21 03:14:00,
2013-01-20 21:19:00,20.6,9.3,30.24,WNW,296,4.9,4.9,61,0.00,OVC,,0.00,WeatherDisplay:10.37,2013-01-21 03:19:00,
2013-01-20 21:24:00,20.5,9.2,30.24,WNW,286,5.3,9.0,61,0.00,OVC,,0.00,WeatherDisplay:10.37,2013-01-21 03:24:00,
2013-01-20 21:29:00,20.5,9.9,30.25,NW,317,1.2,4.6,63,0.00,OVC,,0.00,WeatherDisplay:10.37,2013-01-21 03:29:00,
2013-01-20 21:34:00,20.5,9.9,30.25,WNW,282,5.7,5.8,63,0.00,OVC,,0.00,WeatherDisplay:10.37,2013-01-21 03:34:00,
2013-01-20 21:39:00,20.5,9.9,30.25,North,355,3.8,7.5,63,0.00,OVC,,0.00,WeatherDisplay:10.37,2013-01-21 03:39:00,
2013-01-20 21:44:00,20.3,9.7,30.25,WNW,295,5.7,5.8,63,0.00,OVC,,0.00,WeatherDisplay:10.37,2013-01-21 03:44:00,
2013-01-20 21:49:00,20.3,9.7,30.25,NW,323,5.2,9.0,63,0.00,OVC,,0.00,WeatherDisplay:10.37,2013-01-21 03:49:00,
2013-01-20 21:54:00,20.2,10.0,30.25,West,270,4.4,5.8,64,0.00,OVC,,0.00,WeatherDisplay:10.37,2013-01-21 03:54:00,
2013-01-20 21:59:00,20.0,9.8,30.25,WNW,288,4.6,5.8,64,0.00,OVC,,0.00,WeatherDisplay:10.37,2013-01-21 03:59:00,
2013-01-20 22:04:00,20.0,9.8,30.25,WSW,242,8.8,8.8,64,0.00,OVC,,0.00,WeatherDisplay:10.37,2013-01-21 04:04:00,
2013-01-20 22:09:00,19.9,10.0,30.25,WNW,299,5.4,5.8,65,0.00,OVC,,0.00,WeatherDisplay:10.37,2013-01-21 04:09:00,
2013-01-20 22:14:00,19.9,10.0,30.25,West,281,7.0,8.1,65,0.00,OVC,,0.00,WeatherDisplay:10.37,2013-01-21 04:14:00,
2013-01-20 22:19:00,19.9,10.0,30.24,West,277,2.8,5.8,65,0.00,OVC,,0.00,WeatherDisplay:10.37,2013-01-21 04:19:00,
2013-01-20 22:24:00,19.9,10.4,30.24,West,270,6.0,6.0,66,0.00,OVC,,0.00,WeatherDisplay:10.37,2013-01-21 04:24:00,
2013-01-20 22:29:00,19.9,10.0,30.24,West,260,6.5,8.1,65,0.00,OVC,,0.00,WeatherDisplay:10.37,2013-01-21 04:29:00,
2013-01-20 22:34:00,19.7,9.8,30.24,West,276,4.8,8.1,65,0.00,OVC,,0.00,WeatherDisplay:10.37,2013-01-21 04:34:00,
2013-01-20 22:39:00,19.7,10.2,30.23,West,281,7.3,9.2,66,0.00,OVC,,0.00,WeatherDisplay:10.37,2013-01-21 04:39:00,
2013-01-20 22:44:00,19.7,10.2,30.23,WNW,299,5.2,5.8,66,0.00,OVC,,0.00,WeatherDisplay:10.37,2013-01-21 04:44:00,
2013-01-20 22:49:00,19.5,10.0,30.23,WNW,295,6.7,10.4,66,0.00,OVC,,0.00,WeatherDisplay:10.37,2013-01-21 04:49:00,
2013-01-20 22:54:00,19.5,10.0,30.23,NW,314,5.9,8.1,66,0.00,OVC,,0.00,WeatherDisplay:10.37,2013-01-21 04:54:00,
2013-01-20 22:59:00,19.5,10.3,30.23,WNW,296,3.6,8.1,67,0.00,OVC,,0.00,WeatherDisplay:10.37,2013-01-21 04:59:00,
2013-01-20 23:03:00,19.4,10.2,30.23,WNW,287,4.4,6.0,67,0.00,OVC,,0.00,WeatherDisplay:10.37,2013-01-21 05:03:00,
2013-01-20 23:08:00,19.4,10.6,30.23,West,279,2.8,4.6,68,0.00,OVC,,0.00,WeatherDisplay:10.37,2013-01-21 05:08:00,
2013-01-20 23:13:00,19.4,10.6,30.23,WNW,290,8.1,8.1,68,0.00,OVC,,0.00,WeatherDisplay:10.37,2013-01-21 05:13:00,
2013-01-20 23:18:00,19.2,10.4,30.22,WNW,303,2.2,5.8,68,0.00,OVC,,0.00,WeatherDisplay:10.37,2013-01-21 05:18:00,
2013-01-20 23:23:00,19.4,10.6,30.22,West,269,3.2,4.6,68,0.00,OVC,,0.00,WeatherDisplay:10.37,2013-01-21 05:23:00,
2013-01-20 23:28:00,19.2,10.7,30.22,West,280,6.4,6.4,69,0.00,OVC,,0.00,WeatherDisplay:10.37,2013-01-21 05:28:00,
2013-01-20 23:34:00,19.2,10.7,30.22,WNW,288,7.0,7.0,69,0.00,OVC,,0.00,WeatherDisplay:10.37,2013-01-21 05:34:00,
2013-01-20 23:39:00,19.2,10.7,30.22,West,263,8.6,8.6,69,0.00,OVC,,0.00,WeatherDisplay:10.37,2013-01-21 05:39:00,
2013-01-20 23:44:00,19.2,10.7,30.22,WNW,285,0.6,1.1,69,0.00,OVC,,0.00,WeatherDisplay:10.37,2013-01-21 05:44:00,
2013-01-20 23:49:00,19.2,10.7,30.22,WSW,250,7.7,8.1,69,0.00,OVC,,0.00,WeatherDisplay:10.37,2013-01-21 05:49:00,
2013-01-20 23:54:00,19.2,10.7,30.22,WNW,289,3.6,4.6,69,0.00,OVC,,0.00,WeatherDisplay:10.37,2013-01-21 05:54:00,
2013-01-20 23:59:00,19.2,10.7,30.22,WNW,289,5.9,8.1,69,0.00,OVC,,0.00,WeatherDisplay:10.37,2013-01-21 05:59:00,